UAL281 KDFW-KSFO

Flight info

Callsign UAL281
Flight time 2h 26m
Altitude 26000
Route HRPER3 HULZE FTI J58 RSK HASSL Q130 ROCCY Q164 KATTS Q136 RUMPS OAL INYOE DYAMD5
Aircraft A321/M-SDE3FGHIRWY/LB1

Departure

Time 2026-05-04 13:56
Airport Dallas Fort Worth International Airport (KDFW)

Arrival

Time 2026-05-04 16:22
Airport San Francisco International Airport (KSFO)
Time Latitude Longitude Altitude Speed Heading
2026-05-04 13:13 32.89267 -97.03594 598 ft 0 kts 231°
2026-05-04 13:48 32.89279 -97.03574 598 ft 4 kts 252°
2026-05-04 13:48 32.89280 -97.03545 598 ft 4 kts 300°
2026-05-04 13:48 32.89273 -97.03533 598 ft 0 kts 317°
2026-05-04 13:50 32.89300 -97.03559 598 ft 10 kts 326°
2026-05-04 13:50 32.89382 -97.03553 598 ft 14 kts 48°
2026-05-04 13:51 32.89398 -97.03436 598 ft 18 kts 90°
2026-05-04 13:51 32.89395 -97.03278 598 ft 19 kts 91°
2026-05-04 13:51 32.89450 -97.03191 598 ft 14 kts 355°
2026-05-04 13:51 32.89550 -97.03196 598 ft 15 kts 359°
2026-05-04 13:52 32.89769 -97.03194 598 ft 18 kts
2026-05-04 13:52 32.89906 -97.03193 598 ft 21 kts
2026-05-04 13:52 32.90065 -97.03191 598 ft 24 kts 359°
2026-05-04 13:53 32.90243 -97.03191 598 ft 27 kts
2026-05-04 13:53 32.90436 -97.03190 598 ft 29 kts
2026-05-04 13:53 32.90648 -97.03188 598 ft 32 kts
2026-05-04 13:54 32.91115 -97.03185 598 ft 34 kts
2026-05-04 13:54 32.91346 -97.03186 598 ft 33 kts 359°
2026-05-04 13:54 32.91479 -97.03026 598 ft 16 kts 113°
2026-05-04 13:55 32.91389 -97.02991 598 ft 12 kts 180°
2026-05-04 13:55 32.91179 -97.02993 598 ft 38 kts 180°
2026-05-04 13:55 32.90688 -97.02997 598 ft 101 kts 180°
2026-05-04 13:56 32.89796 -97.03003 599 ft 153 kts 180°
2026-05-04 13:56 32.88591 -97.03005 687 ft 185 kts 180°
2026-05-04 13:56 32.85990 -97.03209 1901 ft 194 kts 205°
2026-05-04 13:57 32.84780 -97.03965 2526 ft 202 kts 207°
2026-05-04 13:57 32.83496 -97.04741 2915 ft 214 kts 207°
2026-05-04 13:58 32.79273 -97.07136 4542 ft 232 kts 207°
2026-05-04 13:58 32.76707 -97.08587 5164 ft 254 kts 208°
2026-05-04 13:58 32.75466 -97.09947 5837 ft 247 kts 242°
2026-05-04 13:59 32.75118 -97.11922 6422 ft 251 kts 276°
2026-05-04 13:59 32.75419 -97.13993 6897 ft 257 kts 285°
2026-05-04 13:59 32.76793 -97.18064 7871 ft 269 kts 283°
2026-05-04 14:00 32.77121 -97.20255 8495 ft 269 kts 276°
2026-05-04 14:00 32.77444 -97.24696 9754 ft 269 kts 282°
2026-05-04 14:00 32.77870 -97.26869 10264 ft 274 kts 284°
2026-05-04 14:01 32.78372 -97.29135 10384 ft 292 kts 285°
2026-05-04 14:01 32.78925 -97.31494 10500 ft 308 kts 286°
2026-05-04 14:01 32.80167 -97.36637 10751 ft 339 kts 286°
2026-05-04 14:02 32.80830 -97.39373 11054 ft 347 kts 286°
2026-05-04 14:02 32.81500 -97.42143 11531 ft 349 kts 286°
2026-05-04 14:02 32.82172 -97.44927 12055 ft 350 kts 286°
2026-05-04 14:02 32.82843 -97.47709 12577 ft 351 kts 286°
2026-05-04 14:03 32.83518 -97.50512 13163 ft 352 kts 286°
2026-05-04 14:03 32.84190 -97.53317 13706 ft 353 kts 286°
2026-05-04 14:03 32.84864 -97.56137 14214 ft 354 kts 286°
2026-05-04 14:03 32.85528 -97.58922 14655 ft 356 kts 285°
2026-05-04 14:04 32.86888 -97.64627 15505 ft 360 kts 285°
2026-05-04 14:04 32.87572 -97.67508 15911 ft 362 kts 285°
2026-05-04 14:04 32.88254 -97.70400 16293 ft 364 kts 285°
2026-05-04 14:05 32.89871 -97.76160 17078 ft 369 kts 290°
2026-05-04 14:05 32.90800 -97.78972 17462 ft 371 kts 290°
2026-05-04 14:05 32.91746 -97.81836 17851 ft 373 kts 290°
2026-05-04 14:06 32.92694 -97.84717 18199 ft 375 kts 290°
2026-05-04 14:06 32.93648 -97.87622 18534 ft 376 kts 290°
2026-05-04 14:06 32.94602 -97.90534 18847 ft 378 kts 290°
2026-05-04 14:06 32.95556 -97.93455 19171 ft 379 kts 290°
2026-05-04 14:07 32.96515 -97.96391 19411 ft 380 kts 290°
2026-05-04 14:07 32.97473 -97.99328 19727 ft 382 kts 290°
2026-05-04 14:07 32.98424 -98.02246 20076 ft 383 kts 290°
2026-05-04 14:07 32.99387 -98.05198 20421 ft 384 kts 290°
2026-05-04 14:08 33.00352 -98.08166 20766 ft 385 kts 290°
2026-05-04 14:08 33.01323 -98.11153 21102 ft 386 kts 290°
2026-05-04 14:08 33.02297 -98.14146 21432 ft 387 kts 290°
2026-05-04 14:08 33.03273 -98.17149 21750 ft 388 kts 290°
2026-05-04 14:09 33.05227 -98.23175 22362 ft 391 kts 290°
2026-05-04 14:09 33.06210 -98.26200 22673 ft 392 kts 291°
2026-05-04 14:10 33.08189 -98.32269 23308 ft 394 kts 291°
2026-05-04 14:10 33.09183 -98.35323 23558 ft 396 kts 290°
2026-05-04 14:10 33.10179 -98.38391 23811 ft 397 kts 290°
2026-05-04 14:10 33.11166 -98.41435 24079 ft 397 kts 291°
2026-05-04 14:11 33.12162 -98.44512 24401 ft 398 kts 291°
2026-05-04 14:11 33.14155 -98.50683 24945 ft 398 kts 291°
2026-05-04 14:11 33.15155 -98.53771 25211 ft 399 kts 291°
2026-05-04 14:12 33.16156 -98.56863 25465 ft 399 kts 291°
2026-05-04 14:12 33.17156 -98.59960 25720 ft 399 kts 291°
2026-05-04 14:12 33.19133 -98.66099 25934 ft 393 kts 291°
2026-05-04 14:13 33.20110 -98.69138 25931 ft 390 kts 291°
2026-05-04 14:13 33.21082 -98.72163 25910 ft 390 kts 291°
2026-05-04 14:13 33.22050 -98.75182 25921 ft 389 kts 291°
2026-05-04 14:13 33.23016 -98.78195 25916 ft 389 kts 291°
2026-05-04 14:14 33.23989 -98.81228 25911 ft 389 kts 291°
2026-05-04 14:14 33.25920 -98.87267 25898 ft 389 kts 291°
2026-05-04 14:14 33.26887 -98.90296 25892 ft 389 kts 291°
2026-05-04 14:15 33.28817 -98.96343 25879 ft 389 kts 291°
2026-05-04 14:15 33.30730 -99.02348 25880 ft 389 kts 291°
2026-05-04 14:16 33.32652 -99.08399 25878 ft 389 kts 291°
2026-05-04 14:16 33.33610 -99.11421 25856 ft 389 kts 290°
2026-05-04 14:17 33.35531 -99.17476 25866 ft 389 kts 290°
2026-05-04 14:17 33.36488 -99.20508 25868 ft 389 kts 290°
2026-05-04 14:17 33.38398 -99.26572 25856 ft 389 kts 290°
2026-05-04 14:18 33.39355 -99.29604 25858 ft 389 kts 290°
2026-05-04 14:18 33.41270 -99.35678 25857 ft 390 kts 290°
2026-05-04 14:19 33.43167 -99.41712 25857 ft 390 kts 290°
2026-05-04 14:19 33.44121 -99.44757 25849 ft 390 kts 290°
2026-05-04 14:19 33.45072 -99.47797 25843 ft 389 kts 290°
2026-05-04 14:19 33.46023 -99.50833 25847 ft 389 kts 290°
2026-05-04 14:20 33.46954 -99.53875 25852 ft 389 kts 289°
2026-05-04 14:20 33.47833 -99.56942 25853 ft 389 kts 288°
2026-05-04 14:20 33.48680 -99.60018 25858 ft 389 kts 288°
2026-05-04 14:21 33.50348 -99.66182 25858 ft 389 kts 288°
2026-05-04 14:21 33.51192 -99.69261 25856 ft 389 kts 288°
2026-05-04 14:21 33.52044 -99.72339 25859 ft 389 kts 288°
2026-05-04 14:21 33.52887 -99.75373 25857 ft 389 kts 288°
2026-05-04 14:22 33.53744 -99.78454 25858 ft 389 kts 288°
2026-05-04 14:22 33.54602 -99.81534 25857 ft 389 kts 288°
2026-05-04 14:22 33.55455 -99.84605 25852 ft 388 kts 288°
2026-05-04 14:22 33.56302 -99.87675 25878 ft 388 kts 288°
2026-05-04 14:23 33.57999 -99.93823 25874 ft 388 kts 288°
2026-05-04 14:23 33.58844 -99.96893 25875 ft 387 kts 288°
2026-05-04 14:23 33.59690 -99.99971 25869 ft 387 kts 288°
2026-05-04 14:24 33.60533 -100.03050 25858 ft 387 kts 288°
2026-05-04 14:24 33.61361 -100.06080 25858 ft 387 kts 288°
2026-05-04 14:24 33.62200 -100.09148 25858 ft 387 kts 288°
2026-05-04 14:24 33.63039 -100.12213 25855 ft 387 kts 288°
2026-05-04 14:25 33.63880 -100.15287 25854 ft 387 kts 288°
2026-05-04 14:25 33.65568 -100.21414 25840 ft 387 kts 290°
2026-05-04 14:25 33.66698 -100.24308 25838 ft 388 kts 296°
2026-05-04 14:26 33.67958 -100.27171 25837 ft 388 kts 296°
2026-05-04 14:26 33.69216 -100.30045 25831 ft 388 kts 295°
2026-05-04 14:26 33.70468 -100.32912 25833 ft 388 kts 295°
2026-05-04 14:26 33.71721 -100.35788 25832 ft 388 kts 295°
2026-05-04 14:27 33.72971 -100.38664 25833 ft 388 kts 295°
2026-05-04 14:27 33.74219 -100.41537 25833 ft 388 kts 295°
2026-05-04 14:27 33.75467 -100.44412 25834 ft 388 kts 295°
2026-05-04 14:27 33.76712 -100.47287 25831 ft 388 kts 295°
2026-05-04 14:28 33.77957 -100.50166 25858 ft 388 kts 295°
2026-05-04 14:28 33.79204 -100.53045 25848 ft 388 kts 295°
2026-05-04 14:28 33.80433 -100.55883 25844 ft 387 kts 295°
2026-05-04 14:28 33.81677 -100.58760 25813 ft 387 kts 295°
2026-05-04 14:29 33.84161 -100.64514 25814 ft 388 kts 295°
2026-05-04 14:29 33.86649 -100.70274 25807 ft 388 kts 295°
2026-05-04 14:30 33.87898 -100.73169 25811 ft 388 kts 295°
2026-05-04 14:30 33.89142 -100.76055 25812 ft 388 kts 295°
2026-05-04 14:30 33.91632 -100.81831 25815 ft 388 kts 295°
2026-05-04 14:31 33.92874 -100.84715 25816 ft 388 kts 295°
2026-05-04 14:31 33.95344 -100.90465 25817 ft 388 kts 295°
2026-05-04 14:32 33.97821 -100.96253 25820 ft 388 kts 295°
2026-05-04 14:32 33.99060 -100.99151 25846 ft 388 kts 295°
2026-05-04 14:32 34.00294 -101.02042 25845 ft 388 kts 295°
2026-05-04 14:32 34.01535 -101.04944 25841 ft 388 kts 295°
2026-05-04 14:33 34.02772 -101.07838 25831 ft 388 kts 295°
2026-05-04 14:33 34.03992 -101.10698 25828 ft 388 kts 295°
2026-05-04 14:33 34.05224 -101.13593 25825 ft 388 kts 295°
2026-05-04 14:33 34.06456 -101.16494 25823 ft 388 kts 295°
2026-05-04 14:34 34.07685 -101.19395 25820 ft 388 kts 295°
2026-05-04 14:34 34.08912 -101.22293 25819 ft 388 kts 295°
2026-05-04 14:34 34.10144 -101.25198 25817 ft 388 kts 295°
2026-05-04 14:34 34.11374 -101.28096 25811 ft 388 kts 295°
2026-05-04 14:35 34.12604 -101.30993 25791 ft 388 kts 295°
2026-05-04 14:35 34.13836 -101.33896 25805 ft 388 kts 295°
2026-05-04 14:35 34.15063 -101.36797 25822 ft 388 kts 295°
2026-05-04 14:35 34.16289 -101.39703 25839 ft 388 kts 295°
2026-05-04 14:36 34.17498 -101.42577 25853 ft 388 kts 295°
2026-05-04 14:36 34.18720 -101.45479 25868 ft 388 kts 295°
2026-05-04 14:36 34.19945 -101.48386 25910 ft 388 kts 295°
2026-05-04 14:36 34.21171 -101.51294 25914 ft 388 kts 295°
2026-05-04 14:37 34.22400 -101.54209 25919 ft 389 kts 295°
2026-05-04 14:37 34.23628 -101.57118 25925 ft 389 kts 295°
2026-05-04 14:37 34.24857 -101.60026 25929 ft 389 kts 295°
2026-05-04 14:37 34.26086 -101.62946 25931 ft 389 kts 295°
2026-05-04 14:38 34.27310 -101.65866 25931 ft 389 kts 295°
2026-05-04 14:38 34.28517 -101.68750 25915 ft 389 kts 294°
2026-05-04 14:38 34.29736 -101.71670 25913 ft 389 kts 294°
2026-05-04 14:38 34.30959 -101.74598 25908 ft 389 kts 294°
2026-05-04 14:39 34.32179 -101.77514 25900 ft 389 kts 294°
2026-05-04 14:39 34.33398 -101.80429 25891 ft 389 kts 294°
2026-05-04 14:39 34.34619 -101.83353 25880 ft 388 kts 294°
2026-05-04 14:40 34.37052 -101.89194 25854 ft 388 kts 294°
2026-05-04 14:40 34.38268 -101.92112 25846 ft 388 kts 294°
2026-05-04 14:40 34.39487 -101.95040 25833 ft 388 kts 294°
2026-05-04 14:40 34.40701 -101.97963 25847 ft 388 kts 294°
2026-05-04 14:41 34.41897 -102.00848 25827 ft 389 kts 294°
2026-05-04 14:41 34.43113 -102.03780 25816 ft 389 kts 294°
2026-05-04 14:41 34.45538 -102.09647 25811 ft 389 kts 294°
2026-05-04 14:42 34.47968 -102.15520 25810 ft 389 kts 294°
2026-05-04 14:42 34.49166 -102.18417 25810 ft 389 kts 294°
2026-05-04 14:42 34.50379 -102.21355 25820 ft 389 kts 294°
2026-05-04 14:43 34.51594 -102.24295 25825 ft 389 kts 294°
2026-05-04 14:43 34.52805 -102.27229 25827 ft 389 kts 294°
2026-05-04 14:43 34.54014 -102.30160 25834 ft 389 kts 294°
2026-05-04 14:43 34.55223 -102.33102 25842 ft 389 kts 294°
2026-05-04 14:44 34.56430 -102.36047 25849 ft 389 kts 294°
2026-05-04 14:44 34.57634 -102.38990 25854 ft 389 kts 294°
2026-05-04 14:44 34.58822 -102.41890 25846 ft 389 kts 294°
2026-05-04 14:44 34.60027 -102.44828 25852 ft 388 kts 294°
2026-05-04 14:45 34.61234 -102.47765 25882 ft 388 kts 294°
2026-05-04 14:45 34.62439 -102.50701 25884 ft 388 kts 294°
2026-05-04 14:45 34.63251 -102.52685 25879 ft 388 kts 294°
2026-05-04 14:45 34.64438 -102.55586 25872 ft 388 kts 294°
2026-05-04 14:46 34.65637 -102.58528 25863 ft 388 kts 294°
2026-05-04 14:46 34.66833 -102.61470 25853 ft 388 kts 293°
2026-05-04 14:46 34.68024 -102.64403 25853 ft 388 kts 293°
2026-05-04 14:46 34.69219 -102.67348 25834 ft 388 kts 294°
2026-05-04 14:47 34.70417 -102.70289 25826 ft 388 kts 294°
2026-05-04 14:47 34.71615 -102.73232 25819 ft 388 kts 294°
2026-05-04 14:47 34.72812 -102.76176 25819 ft 388 kts 294°
2026-05-04 14:47 34.74009 -102.79119 25821 ft 388 kts 293°
2026-05-04 14:48 34.75191 -102.82032 25825 ft 388 kts 293°
2026-05-04 14:48 34.76384 -102.84979 25827 ft 388 kts 293°
2026-05-04 14:48 34.77579 -102.87929 25823 ft 388 kts 293°
2026-05-04 14:48 34.78772 -102.90881 25822 ft 388 kts 293°
2026-05-04 14:49 34.79962 -102.93827 25828 ft 388 kts 293°
2026-05-04 14:49 34.81148 -102.96773 25853 ft 388 kts 293°
2026-05-04 14:49 34.82337 -102.99721 25848 ft 388 kts 293°
2026-05-04 14:49 34.83511 -103.02631 25844 ft 388 kts 293°
2026-05-04 14:50 34.84700 -103.05586 25830 ft 387 kts 293°
2026-05-04 14:50 34.85884 -103.08534 25828 ft 387 kts 293°
2026-05-04 14:50 34.87068 -103.11483 25826 ft 387 kts 293°
2026-05-04 14:50 34.88253 -103.14438 25817 ft 387 kts 293°
2026-05-04 14:51 34.89436 -103.17389 25816 ft 387 kts 293°
2026-05-04 14:51 34.90619 -103.20343 25817 ft 387 kts 293°
2026-05-04 14:51 34.91799 -103.23292 25817 ft 387 kts 293°
2026-05-04 14:51 34.92979 -103.26238 25808 ft 387 kts 293°
2026-05-04 14:52 34.94162 -103.29193 25812 ft 387 kts 293°
2026-05-04 14:52 34.95327 -103.32105 25812 ft 387 kts 293°
2026-05-04 14:52 34.96507 -103.35065 25811 ft 387 kts 293°
2026-05-04 14:52 34.97682 -103.38021 25805 ft 387 kts 293°
2026-05-04 14:53 34.98855 -103.40971 25803 ft 387 kts 293°
2026-05-04 14:53 35.00032 -103.43931 25802 ft 387 kts 293°
2026-05-04 14:53 35.01208 -103.46889 25818 ft 387 kts 293°
2026-05-04 14:53 35.02364 -103.49799 25782 ft 387 kts 293°
2026-05-04 14:54 35.03537 -103.52759 25784 ft 387 kts 293°
2026-05-04 14:54 35.04708 -103.55712 25784 ft 387 kts 293°
2026-05-04 14:54 35.05880 -103.58668 25783 ft 387 kts 293°
2026-05-04 14:54 35.07047 -103.61622 25783 ft 387 kts 293°
2026-05-04 14:55 35.08214 -103.64579 25779 ft 387 kts 293°
2026-05-04 14:55 35.09381 -103.67539 25778 ft 387 kts 293°
2026-05-04 14:55 35.10550 -103.70503 25779 ft 387 kts 293°
2026-05-04 14:55 35.11717 -103.73462 25778 ft 387 kts 293°
2026-05-04 14:56 35.12885 -103.76422 25780 ft 387 kts 293°
2026-05-04 14:56 35.14055 -103.79385 25780 ft 387 kts 293°
2026-05-04 14:56 35.15222 -103.82347 25779 ft 386 kts 293°
2026-05-04 14:56 35.16388 -103.85313 25879 ft 386 kts 292°
2026-05-04 14:57 35.17536 -103.88246 25849 ft 387 kts 293°
2026-05-04 14:57 35.18699 -103.91222 25835 ft 387 kts 293°
2026-05-04 14:57 35.19861 -103.94193 25822 ft 388 kts 293°
2026-05-04 14:57 35.21030 -103.97180 25808 ft 388 kts 293°
2026-05-04 14:58 35.22195 -104.00160 25793 ft 388 kts 293°
2026-05-04 14:58 35.23343 -104.03103 25782 ft 389 kts 293°
2026-05-04 14:58 35.24510 -104.06091 25780 ft 389 kts 293°
2026-05-04 14:58 35.25677 -104.09079 25784 ft 389 kts 293°
2026-05-04 14:59 35.26845 -104.12071 25783 ft 389 kts 293°
2026-05-04 14:59 35.28012 -104.15060 25785 ft 389 kts 293°
2026-05-04 14:59 35.30339 -104.21039 25788 ft 389 kts 293°
2026-05-04 15:00 35.31504 -104.24040 25770 ft 389 kts 293°
2026-05-04 15:00 35.32651 -104.27004 25772 ft 390 kts 293°
2026-05-04 15:00 35.33812 -104.30007 25775 ft 390 kts 293°
2026-05-04 15:01 35.36141 -104.36023 25779 ft 391 kts 293°
2026-05-04 15:01 35.37309 -104.39047 25781 ft 391 kts 293°
2026-05-04 15:01 35.38473 -104.42064 25801 ft 390 kts 293°
2026-05-04 15:01 35.39636 -104.45080 25799 ft 391 kts 293°
2026-05-04 15:02 35.40799 -104.48106 25796 ft 392 kts 292°
2026-05-04 15:02 35.41959 -104.51124 25792 ft 392 kts 292°
2026-05-04 15:02 35.43106 -104.54110 25791 ft 392 kts 292°
2026-05-04 15:02 35.44272 -104.57139 25792 ft 392 kts 293°
2026-05-04 15:03 35.45437 -104.60160 25796 ft 392 kts 293°
2026-05-04 15:03 35.46602 -104.63185 25802 ft 392 kts 292°
2026-05-04 15:03 35.47767 -104.66220 25803 ft 392 kts 292°
2026-05-04 15:03 35.48927 -104.69252 25803 ft 392 kts 292°
2026-05-04 15:04 35.50086 -104.72282 25802 ft 391 kts 292°
2026-05-04 15:04 35.51242 -104.75308 25801 ft 392 kts 292°
2026-05-04 15:04 35.52397 -104.78341 25804 ft 392 kts 292°
2026-05-04 15:04 35.53556 -104.81386 25811 ft 393 kts 292°
2026-05-04 15:05 35.54697 -104.84387 25813 ft 392 kts 292°
2026-05-04 15:05 35.55853 -104.87420 25813 ft 392 kts 292°
2026-05-04 15:05 35.57009 -104.90453 25830 ft 392 kts 292°
2026-05-04 15:05 35.58163 -104.93486 25813 ft 392 kts 292°
2026-05-04 15:06 35.59316 -104.96525 25807 ft 392 kts 292°
2026-05-04 15:06 35.60465 -104.99557 25804 ft 392 kts 292°
2026-05-04 15:06 35.61616 -105.02594 26064 ft 392 kts 292°
2026-05-04 15:07 35.63912 -105.08681 26073 ft 392 kts 292°
2026-05-04 15:07 35.65062 -105.11736 26073 ft 392 kts 292°
2026-05-04 15:07 35.66195 -105.14736 26073 ft 392 kts 292°
2026-05-04 15:07 35.67358 -105.17777 26073 ft 393 kts 292°
2026-05-04 15:08 35.68531 -105.20809 26071 ft 393 kts 293°
2026-05-04 15:08 35.69711 -105.23848 26072 ft 393 kts 293°
2026-05-04 15:08 35.70886 -105.26883 26046 ft 392 kts 292°
2026-05-04 15:08 35.72054 -105.29917 26008 ft 392 kts 292°
2026-05-04 15:09 35.73216 -105.32946 25986 ft 392 kts 292°
2026-05-04 15:09 35.74381 -105.35990 25964 ft 393 kts 292°
2026-05-04 15:09 35.75544 -105.39035 25958 ft 393 kts 292°
2026-05-04 15:10 35.77879 -105.45127 25901 ft 393 kts 292°
2026-05-04 15:10 35.79045 -105.48172 25873 ft 393 kts 292°
2026-05-04 15:10 35.81369 -105.54271 25850 ft 393 kts 292°
2026-05-04 15:11 35.82518 -105.57293 25853 ft 394 kts 292°
2026-05-04 15:11 35.83683 -105.60358 25855 ft 394 kts 292°
2026-05-04 15:11 35.84845 -105.63420 25852 ft 393 kts 292°
2026-05-04 15:11 35.86003 -105.66474 25901 ft 393 kts 292°
2026-05-04 15:12 35.87158 -105.69521 25909 ft 392 kts 292°
2026-05-04 15:12 35.88309 -105.72563 25904 ft 390 kts 291°
2026-05-04 15:12 35.89457 -105.75603 25906 ft 390 kts 291°
2026-05-04 15:12 35.90602 -105.78636 25916 ft 389 kts 292°
2026-05-04 15:13 35.91747 -105.81663 25914 ft 389 kts 292°
2026-05-04 15:13 35.92878 -105.84649 25915 ft 389 kts 292°
2026-05-04 15:13 35.94021 -105.87676 25903 ft 387 kts 291°
2026-05-04 15:13 35.95154 -105.90674 25906 ft 385 kts 291°
2026-05-04 15:14 35.96283 -105.93669 25888 ft 385 kts 291°
2026-05-04 15:14 35.97411 -105.96668 25972 ft 384 kts 291°
2026-05-04 15:14 35.98536 -105.99665 25983 ft 385 kts 291°
2026-05-04 15:14 35.99662 -106.02674 25991 ft 385 kts 291°
2026-05-04 15:15 36.00788 -106.05684 25996 ft 386 kts 291°
2026-05-04 15:15 36.01901 -106.08656 26004 ft 386 kts 291°
2026-05-04 15:15 36.03029 -106.11672 26010 ft 387 kts 291°
2026-05-04 15:16 36.05291 -106.17724 26020 ft 387 kts 291°
2026-05-04 15:16 36.06421 -106.20753 26019 ft 388 kts 291°
2026-05-04 15:16 36.08661 -106.26779 26000 ft 387 kts 290°
2026-05-04 15:17 36.09784 -106.29804 25989 ft 388 kts 291°
2026-05-04 15:17 36.12045 -106.35890 25994 ft 389 kts 291°
2026-05-04 15:17 36.13174 -106.38932 25969 ft 388 kts 290°
2026-05-04 15:18 36.14304 -106.41975 25960 ft 389 kts 291°
2026-05-04 15:18 36.15435 -106.45027 25946 ft 389 kts 291°
2026-05-04 15:18 36.16564 -106.48074 25920 ft 389 kts 290°
2026-05-04 15:19 36.18792 -106.54120 25905 ft 389 kts 290°
2026-05-04 15:19 36.19915 -106.57173 25906 ft 389 kts 290°
2026-05-04 15:19 36.22162 -106.63268 25910 ft 388 kts 290°
2026-05-04 15:20 36.23278 -106.66302 25903 ft 388 kts 290°
2026-05-04 15:20 36.24397 -106.69352 25905 ft 388 kts 290°
2026-05-04 15:20 36.25518 -106.72403 25906 ft 389 kts 290°
2026-05-04 15:20 36.26638 -106.75451 25899 ft 389 kts 290°
2026-05-04 15:21 36.27761 -106.78508 25899 ft 389 kts 290°
2026-05-04 15:21 36.28879 -106.81567 25928 ft 389 kts 290°
2026-05-04 15:21 36.31091 -106.87632 25925 ft 388 kts 290°
2026-05-04 15:22 36.32205 -106.90690 25927 ft 388 kts 290°
2026-05-04 15:22 36.33314 -106.93731 25924 ft 387 kts 290°
2026-05-04 15:22 36.35529 -106.99817 25920 ft 387 kts 290°
2026-05-04 15:23 36.36634 -107.02860 25920 ft 387 kts 290°
2026-05-04 15:23 36.37742 -107.05912 25908 ft 387 kts 290°
2026-05-04 15:23 36.38850 -107.08960 25903 ft 387 kts 290°
2026-05-04 15:23 36.39958 -107.12013 25899 ft 388 kts 290°
2026-05-04 15:24 36.42160 -107.18104 25897 ft 389 kts 290°
2026-05-04 15:24 36.44373 -107.24242 25900 ft 389 kts 290°
2026-05-04 15:25 36.45479 -107.27314 25931 ft 389 kts 290°
2026-05-04 15:25 36.46583 -107.30383 25929 ft 389 kts 290°
2026-05-04 15:25 36.47687 -107.33446 25929 ft 388 kts 290°
2026-05-04 15:26 36.49877 -107.39530 25925 ft 388 kts 290°
2026-05-04 15:26 36.50976 -107.42594 25921 ft 388 kts 289°
2026-05-04 15:26 36.53163 -107.48726 25901 ft 388 kts 289°
2026-05-04 15:27 36.54258 -107.51791 25904 ft 388 kts 289°
2026-05-04 15:27 36.56449 -107.57922 25903 ft 388 kts 289°
2026-05-04 15:28 36.58645 -107.64065 25900 ft 388 kts 289°
2026-05-04 15:28 36.59740 -107.67142 25901 ft 388 kts 289°
2026-05-04 15:28 36.61904 -107.73242 25917 ft 388 kts 289°
2026-05-04 15:29 36.62989 -107.76317 25915 ft 389 kts 289°
2026-05-04 15:30 36.67362 -107.88658 25952 ft 389 kts 289°
2026-05-04 15:30 36.70630 -107.97919 25995 ft 389 kts 289°
2026-05-04 15:31 36.72788 -108.04047 26019 ft 388 kts 289°
2026-05-04 15:31 36.73870 -108.07134 26035 ft 389 kts 289°
2026-05-04 15:32 36.76957 -108.16471 26057 ft 387 kts 287°
2026-05-04 15:32 36.78850 -108.22759 26074 ft 387 kts 287°
2026-05-04 15:33 36.80754 -108.29050 26063 ft 388 kts 287°
2026-05-04 15:34 36.83661 -108.38493 26024 ft 388 kts 287°
2026-05-04 15:34 36.84303 -108.40573 26012 ft 388 kts 287°
2026-05-04 15:34 36.86548 -108.47900 25969 ft 388 kts 287°
2026-05-04 15:35 36.88147 -108.53146 25940 ft 388 kts 287°
2026-05-04 15:35 36.89110 -108.56302 25924 ft 388 kts 287°
2026-05-04 15:35 36.90072 -108.59458 25900 ft 388 kts 287°
2026-05-04 15:36 36.91996 -108.65767 25892 ft 388 kts 287°
2026-05-04 15:36 36.92958 -108.68925 25891 ft 388 kts 287°
2026-05-04 15:36 36.93920 -108.72088 25874 ft 388 kts 287°
2026-05-04 15:37 36.94865 -108.75205 25876 ft 388 kts 287°
2026-05-04 15:37 36.95822 -108.78369 25876 ft 388 kts 286°
2026-05-04 15:37 36.96775 -108.81536 25874 ft 389 kts 286°
2026-05-04 15:37 36.97728 -108.84701 25866 ft 389 kts 286°
2026-05-04 15:38 36.98680 -108.87867 25868 ft 389 kts 286°
2026-05-04 15:38 36.99633 -108.91039 25868 ft 389 kts 286°
2026-05-04 15:38 37.00587 -108.94216 25869 ft 390 kts 286°
2026-05-04 15:38 37.01544 -108.97397 25870 ft 390 kts 286°
2026-05-04 15:39 37.02501 -109.00574 25868 ft 390 kts 286°
2026-05-04 15:39 37.03461 -109.03755 25870 ft 390 kts 286°
2026-05-04 15:39 37.05362 -109.10068 25869 ft 390 kts 286°
2026-05-04 15:40 37.06313 -109.13249 25875 ft 390 kts 286°
2026-05-04 15:40 37.07259 -109.16429 25887 ft 390 kts 286°
2026-05-04 15:40 37.08208 -109.19617 25888 ft 390 kts 286°
2026-05-04 15:40 37.09157 -109.22804 25881 ft 390 kts 286°
2026-05-04 15:41 37.10107 -109.25996 25878 ft 391 kts 286°
2026-05-04 15:41 37.11061 -109.29196 25876 ft 391 kts 286°
2026-05-04 15:41 37.11999 -109.32347 25875 ft 391 kts 286°
2026-05-04 15:41 37.12947 -109.35542 25874 ft 391 kts 286°
2026-05-04 15:42 37.13894 -109.38743 25880 ft 391 kts 286°
2026-05-04 15:42 37.14839 -109.41939 25879 ft 391 kts 286°
2026-05-04 15:42 37.15786 -109.45138 25880 ft 391 kts 286°
2026-05-04 15:42 37.16734 -109.48345 25881 ft 391 kts 285°
2026-05-04 15:43 37.17678 -109.51547 25882 ft 392 kts 285°
2026-05-04 15:43 37.18620 -109.54757 25881 ft 392 kts 285°
2026-05-04 15:43 37.19562 -109.57967 25884 ft 392 kts 285°
2026-05-04 15:43 37.20505 -109.61179 25885 ft 392 kts 285°
2026-05-04 15:44 37.21450 -109.64393 25888 ft 392 kts 285°
2026-05-04 15:44 37.22380 -109.67561 25898 ft 392 kts 286°
2026-05-04 15:44 37.23324 -109.70776 25897 ft 392 kts 285°
2026-05-04 15:44 37.24265 -109.73997 25897 ft 392 kts 285°
2026-05-04 15:45 37.25201 -109.77209 25900 ft 392 kts 285°
2026-05-04 15:45 37.26140 -109.80430 25901 ft 392 kts 285°
2026-05-04 15:45 37.29050 -109.90430 25886 ft 392 kts 285°
2026-05-04 15:45 37.32745 -110.03151 25874 ft 393 kts 285°
2026-05-04 15:46 37.36472 -110.16084 25887 ft 393 kts 285°
2026-05-04 15:46 37.40197 -110.29030 25862 ft 393 kts 285°
2026-05-04 15:46 37.43897 -110.41961 25871 ft 392 kts 285°
2026-05-04 15:46 37.47576 -110.54921 25822 ft 395 kts 285°
2026-05-04 15:47 37.51285 -110.68007 25859 ft 395 kts 285°
2026-05-04 15:47 37.54971 -110.81077 25838 ft 395 kts 285°
2026-05-04 15:47 37.58496 -110.94245 25852 ft 395 kts 282°
2026-05-04 15:47 37.61537 -111.07561 25838 ft 396 kts 282°
2026-05-04 15:48 37.64668 -111.20919 25860 ft 396 kts 282°
2026-05-04 15:48 37.67778 -111.34276 25837 ft 397 kts 282°
2026-05-04 15:48 37.73908 -111.60890 25879 ft 397 kts 282°
2026-05-04 15:49 37.76989 -111.74318 25916 ft 398 kts 282°
2026-05-04 15:49 37.80062 -111.87801 25992 ft 399 kts 282°
2026-05-04 15:49 37.83098 -112.01307 26053 ft 398 kts 281°
2026-05-04 15:49 37.85574 -112.14899 26038 ft 395 kts 278°
2026-05-04 15:50 37.87983 -112.28483 25991 ft 397 kts 278°
2026-05-04 15:50 37.90439 -112.42131 25928 ft 399 kts 278°
2026-05-04 15:50 37.92884 -112.55844 25874 ft 399 kts 278°
2026-05-04 15:50 37.95324 -112.69606 25853 ft 400 kts 278°
2026-05-04 15:51 37.97741 -112.83359 25844 ft 399 kts 278°
2026-05-04 15:51 38.00134 -112.97116 25805 ft 400 kts 278°
2026-05-04 15:51 38.02535 -113.10948 25800 ft 402 kts 278°
2026-05-04 15:51 38.04892 -113.24638 25792 ft 403 kts 277°
2026-05-04 15:52 38.07263 -113.38558 25810 ft 403 kts 277°
2026-05-04 15:52 38.09624 -113.52514 25791 ft 405 kts 277°
2026-05-04 15:52 38.11980 -113.66538 25793 ft 406 kts 277°
2026-05-04 15:52 38.14329 -113.80608 25807 ft 407 kts 277°
2026-05-04 15:53 38.16662 -113.94715 25803 ft 408 kts 277°
2026-05-04 15:53 38.18983 -114.08868 25804 ft 408 kts 277°
2026-05-04 15:53 38.21286 -114.23024 25792 ft 408 kts 277°
2026-05-04 15:53 38.23574 -114.37145 25782 ft 406 kts 277°
2026-05-04 15:54 38.25810 -114.51112 25807 ft 408 kts 276°
2026-05-04 15:54 38.28053 -114.65287 25769 ft 408 kts 276°
2026-05-04 15:54 38.30297 -114.79487 25773 ft 409 kts 276°
2026-05-04 15:54 38.32531 -114.93744 25774 ft 410 kts 276°
2026-05-04 15:55 38.32945 -115.08144 25770 ft 406 kts 266°
2026-05-04 15:55 38.33098 -115.22546 25762 ft 407 kts 267°
2026-05-04 15:55 38.33179 -115.36831 25776 ft 408 kts 266°
2026-05-04 15:55 38.33258 -115.51328 25781 ft 409 kts 267°
2026-05-04 15:56 38.33312 -115.65823 25806 ft 410 kts 266°
2026-05-04 15:56 38.33357 -115.80355 25808 ft 410 kts 266°
2026-05-04 15:56 38.33372 -115.94926 25805 ft 410 kts 266°
2026-05-04 15:56 38.33374 -116.09483 25798 ft 412 kts 266°
2026-05-04 15:57 38.33357 -116.24128 25801 ft 413 kts 266°
2026-05-04 15:57 38.32218 -116.38298 25843 ft 407 kts 251°
2026-05-04 15:57 38.29056 -116.52307 25870 ft 413 kts 252°
2026-05-04 15:57 38.25896 -116.66344 25870 ft 412 kts 251°
2026-05-04 15:58 38.22707 -116.80315 25896 ft 410 kts 251°
2026-05-04 15:58 38.19525 -116.94305 25937 ft 410 kts 251°
2026-05-04 15:58 38.16322 -117.08212 25960 ft 410 kts 251°
2026-05-04 15:58 38.13089 -117.22083 25848 ft 410 kts 251°
2026-05-04 15:59 38.09868 -117.36010 25843 ft 411 kts 251°
2026-05-04 15:59 38.06654 -117.49990 25837 ft 411 kts 251°
2026-05-04 15:59 38.03453 -117.63747 25833 ft 412 kts 251°
2026-05-04 15:59 38.00254 -117.77715 25819 ft 415 kts 257°
2026-05-04 16:00 37.98745 -117.92292 25836 ft 416 kts 259°
2026-05-04 16:00 37.97183 -118.06887 25861 ft 417 kts 259°
2026-05-04 16:00 37.95623 -118.21501 25851 ft 419 kts 259°
2026-05-04 16:00 37.94033 -118.36153 25859 ft 420 kts 259°
2026-05-04 16:01 37.92423 -118.50868 25870 ft 422 kts 259°
2026-05-04 16:01 37.90779 -118.65659 25867 ft 425 kts 259°
2026-05-04 16:01 37.89094 -118.80579 25894 ft 429 kts 259°
2026-05-04 16:01 37.87395 -118.95592 25905 ft 432 kts 259°
2026-05-04 16:02 37.85666 -119.10698 25902 ft 434 kts 259°
2026-05-04 16:02 37.83924 -119.25586 25959 ft 434 kts 259°
2026-05-04 16:02 37.80336 -119.55949 25965 ft 436 kts 260°
2026-05-04 16:03 37.78501 -119.71135 25973 ft 438 kts 260°
2026-05-04 16:03 37.76657 -119.86384 26000 ft 439 kts 260°
2026-05-04 16:03 37.74751 -120.01880 25886 ft 454 kts 261°
2026-05-04 16:03 37.72807 -120.17551 25864 ft 452 kts 261°
2026-05-04 16:04 37.70810 -120.33283 25965 ft 449 kts 261°
2026-05-04 16:04 37.67229 -120.63608 24468 ft 418 kts 262°
2026-05-04 16:04 37.65498 -120.78064 23338 ft 416 kts 262°
2026-05-04 16:05 37.63766 -120.92424 20794 ft 409 kts 262°
2026-05-04 16:05 37.62017 -121.06106 19043 ft 386 kts 260°
2026-05-04 16:05 37.58602 -121.31769 14879 ft 357 kts 261°
2026-05-04 16:06 37.57222 -121.44010 12814 ft 347 kts 261°
2026-05-04 16:06 37.52455 -121.73280 8556 ft 311 kts 252°
2026-05-04 16:07 37.50124 -121.83154 7889 ft 266 kts 251°
2026-05-04 16:07 37.49438 -121.89946 7069 ft 263 kts 279°
2026-05-04 16:08 37.49801 -121.92220 7067 ft 264 kts 279°
2026-05-04 16:08 37.50840 -121.99058 7080 ft 264 kts 278°
2026-05-04 16:09 37.51522 -122.03578 7071 ft 264 kts 278°
2026-05-04 16:09 37.52204 -122.08131 7070 ft 263 kts 279°
2026-05-04 16:10 37.52875 -122.12605 7067 ft 253 kts 276°
2026-05-04 16:11 37.50577 -122.17794 6715 ft 237 kts 213°
2026-05-04 16:11 37.49233 -122.19010 6580 ft 239 kts 213°
2026-05-04 16:12 37.44718 -122.20278 5771 ft 227 kts 165°
2026-05-04 16:12 37.40203 -122.18493 3975 ft 227 kts 162°
2026-05-04 16:13 37.37252 -122.17134 3134 ft 221 kts 153°
2026-05-04 16:13 37.34946 -122.14178 2847 ft 238 kts 107°
2026-05-04 16:14 37.35644 -122.10670 2928 ft 209 kts 43°
2026-05-04 16:14 37.37656 -122.07822 2606 ft 215 kts 52°
2026-05-04 16:15 37.41100 -122.06326 2340 ft 177 kts 350°
2026-05-04 16:16 37.43483 -122.06931 2413 ft 175 kts 334°
2026-05-04 16:16 37.46523 -122.09437 2684 ft 178 kts 323°
2026-05-04 16:17 37.48642 -122.11311 2661 ft 187 kts 324°
2026-05-04 16:18 37.51745 -122.14320 3107 ft 190 kts 316°
2026-05-04 16:18 37.52679 -122.15471 3119 ft 183 kts 305°
2026-05-04 16:19 37.54518 -122.19534 2934 ft 186 kts 296°
2026-05-04 16:19 37.55813 -122.22495 2614 ft 204 kts 296°
2026-05-04 16:20 37.57798 -122.27517 1196 ft 210 kts 294°
2026-05-04 16:20 37.59033 -122.30353 784 ft 169 kts 300°
2026-05-04 16:21 37.60680 -122.34118 351 ft 166 kts 299°
2026-05-04 16:22 37.61718 -122.36589 29 ft 144 kts 298°
2026-05-04 16:22 37.62507 -122.38536 19 ft 21 kts 268°
2026-05-04 16:23 37.62316 -122.38961 15 ft 17 kts 189°
2026-05-04 16:24 37.62064 -122.38435 21 ft 8 kts 117°
2026-05-04 16:25 37.62038 -122.38371 22 ft 3 kts 118°
2026-05-04 16:26 37.61963 -122.38323 23 ft 5 kts 259°
2026-05-04 16:26 37.61960 -122.38342 21 ft 0 kts 259°